Location: Port Stanley
(42.6641°N, 81.2156°W)
Time: 18:23:28
(UTC-04:00)

ISS - Pass Details

Date: 02 July 2019
Orbit: 409 x 418 km, 51.6° (Epoch: 22 July)

Event Time Altitude Azimuth Distance (km) Brightness Sun altitude
Exits shadow 03:33:57 16° 131° (SE) 1,167 -1.6 -18.2°
Drops below altitude 10° 03:36:00 10° 93° (E) 1,474 -0.6 -18.1°
Sets 03:38:38 0° 70° (ENE) 2,339 0.9 -17.8°
